Location: Betz
(49.1556°N, 2.9558°E)
Time: 22:26:14
(UTC+00:00)

Cosmos 1452 Rocket - Pass Details

Date: 18 September 2019
Orbit: 767 x 775 km, 74.1° (Epoch: 21 October)

Event Time Altitude Azimuth Distance (km) Brightness Sun altitude
Exits shadow 20:52:09 45° 35° (NE) 1,042 4.1 -27.3°
Drops below altitude 10° 20:55:47 10° 26° (NNE) 2,319 6.1 -27.8°
Sets 20:58:10 0° 25° (NNE) 3,250 7.0 -28.1°
